Regional Weather Roundup
Issued by NWS

Home | Current Version | Previous Version | Graphics & Text | Print | Product List | Glossary On
Versions: 1 2 3 4 5 6 7 8 9 10 11 12 13 14 15 16 17 18 19 20 21 22 23 24 25 26 27 28 29 30 31 32 33 34 35 36 37 38 39 40 41 42 43 44 45 46 47 48 49 50
000
ASUS43 KLMK 222002
RWRKY
KENTUCKY REGIONAL WEATHER ROUNDUP
NATIONAL WEATHER SERVICE LOUISVILLE KY
300 PM EST MON DEC 22 2014

NOTE "FAIR" INDICATES FEW OR NO CLOUDS BELOW 12,000 FEET
WITH NO SIGNIFICANT WEATHER AND/OR OBSTRUCTIONS TO VISIBILITY.

KYZ001>023-026-027-061>063-070>075-222100-
WESTERN AND SOUTH CENTRAL KENTUCKY

CITY           SKY/WX    TMP DP  RH WIND       PRES   REMARKS
PADUCAH        LGT RAIN  52  49  89 SE12      29.63F
HENDERSON      CLOUDY    50  45  81 SE15      29.71F
OWENSBORO      CLOUDY    52  46  79 SE13      29.75F
HOPKINSVILLE   CLOUDY    53  47  79 SE12      29.72F
BOWLING GREEN  CLOUDY    55  44  66 SE9       29.78F
GLASGOW        NOT AVBL
$$

KYZ024-025-028>034-038-045-046-053-222100-
NORTH CENTRAL KENTUCKY

CITY           SKY/WX    TMP DP  RH WIND       PRES   REMARKS
LOUISVILLE/SDF CLOUDY    52  42  69 SE12      29.79F
LOUISVILLE/LOU CLOUDY    52  42  69 SE8       29.80F
FORT KNOX      CLOUDY    52  43  71 SE9       29.76F
$$

KYZ035>037-039>044-047>052-055>060-089>105-222100-
NORTHEAST KENTUCKY

CITY           SKY/WX    TMP DP  RH WIND       PRES   REMARKS
LEXINGTON      CLOUDY    54  40  59 E10       29.82F
COVINGTON      CLOUDY    51  36  56 E10       29.82F
FRANKFORT      CLOUDY    52  40  63 E9        29.79F
$$

KYZ054-064>069-076>088-106>120-222100-
SOUTHEAST KENTUCKY

CITY           SKY/WX    TMP DP  RH WIND       PRES   REMARKS
JACKSON        CLOUDY    55  40  56 CALM      29.87F
LONDON         CLOUDY    58  42  55 SE7       29.83F
SOMERSET       NOT AVBL
MIDDLESBORO    PTSUNNY   57  42  57 E3        29.85F
MONTICELLO     MOCLDY    57  46  66 S14G24    29.83F
$$




USA.gov is the U.S. government's official web portal to all federal, state and local government web resources and services.